Time,TemperatureF,DewpointF,PressureIn,WindDirection,WindDirectionDegrees,WindSpeedMPH,WindSpeedGustMPH,Humidity,HourlyPrecipIn,Conditions,Clouds,dailyrainin,SoftwareType,DateUTC
2013-10-14 00:00:00,51.3,50.2,30.26,NNW,344,0.0,2.0,96,0.00,,BKN055,0.00,VWS V14.00,2013-10-14 04:00:00,
2013-10-14 00:10:00,51.1,50.0,30.27,NNW,348,0.0,4.0,96,0.00,,BKN055,0.00,VWS V14.00,2013-10-14 04:10:00,
2013-10-14 00:20:00,50.9,49.8,30.27,NNW,342,1.0,3.0,96,0.00,,BKN055,0.00,VWS V14.00,2013-10-14 04:20:00,
2013-10-14 00:30:00,50.7,49.6,30.27,NNW,342,0.0,3.0,96,0.00,,BKN055,0.00,VWS V14.00,2013-10-14 04:30:00,
2013-10-14 00:40:00,50.2,49.1,30.27,NNW,343,0.0,3.0,96,0.00,,BKN055,0.00,VWS V14.00,2013-10-14 04:40:00,
2013-10-14 00:50:00,49.8,48.7,30.27,NNW,343,0.0,0.0,96,0.00,,BKN055,0.00,VWS V14.00,2013-10-14 04:50:00,
2013-10-14 01:00:00,49.6,48.5,30.27,NNW,342,0.0,0.0,96,0.00,,BKN055,0.00,VWS V14.00,2013-10-14 05:00:00,
2013-10-14 01:10:00,49.4,48.3,30.27,NNW,341,0.0,3.0,96,0.00,,BKN055,0.00,VWS V14.00,2013-10-14 05:10:00,
2013-10-14 01:20:00,49.0,47.9,30.27,NNW,342,0.0,0.0,96,0.00,,BKN055,0.00,VWS V14.00,2013-10-14 05:20:00,
2013-10-14 01:30:00,48.8,47.7,30.26,NNW,342,0.0,0.0,96,0.00,,BKN055,0.00,VWS V14.00,2013-10-14 05:30:00,
2013-10-14 01:40:00,48.5,47.4,30.27,NNW,342,0.0,4.0,96,0.00,,BKN055,0.00,VWS V14.00,2013-10-14 05:40:00,
2013-10-14 01:50:00,48.3,47.2,30.26,NNW,345,0.0,3.0,96,0.00,,BKN055,0.00,VWS V14.00,2013-10-14 05:50:00,
2013-10-14 02:00:00,48.2,47.1,30.26,NNW,327,0.0,3.0,96,0.00,,BKN055,0.00,VWS V14.00,2013-10-14 06:00:00,
2013-10-14 02:10:00,48.3,47.2,30.26,NNW,341,1.0,3.0,96,0.00,,BKN055,0.00,VWS V14.00,2013-10-14 06:10:00,
2013-10-14 02:20:00,48.2,47.1,30.26,NNW,344,0.0,2.0,96,0.00,,BKN055,0.00,VWS V14.00,2013-10-14 06:20:00,
2013-10-14 02:30:00,48.0,46.6,30.27,NNW,346,0.0,1.0,95,0.00,,BKN055,0.00,VWS V14.00,2013-10-14 06:30:00,
2013-10-14 02:40:00,47.7,46.3,30.27,NNW,346,0.0,0.0,95,0.00,,BKN055,0.00,VWS V14.00,2013-10-14 06:40:00,
2013-10-14 02:50:00,47.4,46.0,30.27,NNW,346,0.0,0.0,95,0.00,,BKN055,0.00,VWS V14.00,2013-10-14 06:50:00,
2013-10-14 03:00:00,47.4,46.0,30.27,NNW,346,0.0,0.0,95,0.00,,BKN055,0.00,VWS V14.00,2013-10-14 07:00:00,
2013-10-14 03:10:00,47.3,45.9,30.28,NNW,346,0.0,2.0,95,0.00,,BKN055,0.00,VWS V14.00,2013-10-14 07:10:00,
2013-10-14 03:20:00,47.0,45.7,30.28,NNW,346,0.0,3.0,95,0.00,,BKN055,0.00,VWS V14.00,2013-10-14 07:20:00,
2013-10-14 03:30:00,46.5,45.4,30.28,NNW,348,0.0,3.0,96,0.00,,BKN055,0.00,VWS V14.00,2013-10-14 07:30:00,
2013-10-14 03:40:00,46.3,45.2,30.28,North,349,0.0,0.0,96,0.00,,BKN055,0.00,VWS V14.00,2013-10-14 07:40:00,
2013-10-14 03:50:00,46.0,45.2,30.28,North,349,0.0,0.0,97,0.00,,BKN055,0.00,VWS V14.00,2013-10-14 07:50:00,
2013-10-14 04:00:00,46.0,45.2,30.28,North,349,0.0,2.0,97,0.00,,BKN055,0.00,VWS V14.00,2013-10-14 08:00:00,
2013-10-14 04:10:00,46.0,45.2,30.27,North,349,0.0,3.0,97,0.00,,BKN055,0.00,VWS V14.00,2013-10-14 08:10:00,
2013-10-14 04:20:00,46.1,45.3,30.28,North,349,0.0,0.0,97,0.00,,BKN055,0.00,VWS V14.00,2013-10-14 08:20:00,
2013-10-14 04:30:00,46.1,45.0,30.28,North,349,0.0,0.0,96,0.00,,BKN055,0.00,VWS V14.00,2013-10-14 08:30:00,
2013-10-14 04:40:00,45.7,44.6,30.28,North,349,0.0,2.0,96,0.00,,BKN055,0.00,VWS V14.00,2013-10-14 08:40:00,
2013-10-14 04:50:00,45.6,44.5,30.28,North,349,0.0,1.0,96,0.00,,BKN055,0.00,VWS V14.00,2013-10-14 08:50:00,
2013-10-14 05:00:00,45.6,44.5,30.28,North,349,0.0,0.0,96,0.00,,BKN055,0.00,VWS V14.00,2013-10-14 09:00:00,
2013-10-14 05:10:00,45.3,44.2,30.28,North,349,2.0,2.0,96,0.00,,BKN055,0.00,VWS V14.00,2013-10-14 09:10:00,
2013-10-14 05:20:00,45.1,44.3,30.28,North,349,0.0,3.0,97,0.00,,BKN055,0.00,VWS V14.00,2013-10-14 09:20:00,
2013-10-14 05:30:00,44.9,44.1,30.28,North,349,0.0,0.0,97,0.00,,BKN055,0.00,VWS V14.00,2013-10-14 09:30:00,
2013-10-14 05:40:00,44.6,43.8,30.29,North,349,0.0,2.0,97,0.00,,BKN055,0.00,VWS V14.00,2013-10-14 09:40:00,
2013-10-14 05:50:00,44.5,43.7,30.28,North,349,0.0,0.0,97,0.00,,BKN055,0.00,VWS V14.00,2013-10-14 09:50:00,
2013-10-14 06:00:00,44.4,43.6,30.29,North,349,0.0,2.0,97,0.00,,BKN055,0.00,VWS V14.00,2013-10-14 10:00:00,
2013-10-14 06:10:00,44.2,43.4,30.29,North,349,0.0,0.0,97,0.00,,BKN055,0.00,VWS V14.00,2013-10-14 10:10:00,
2013-10-14 06:20:00,44.1,43.3,30.29,North,349,0.0,0.0,97,0.00,,BKN055,0.00,VWS V14.00,2013-10-14 10:20:00,
2013-10-14 06:30:00,44.0,43.2,30.29,North,349,0.0,2.0,97,0.00,,BKN055,0.00,VWS V14.00,2013-10-14 10:30:00,
2013-10-14 06:40:00,43.9,43.1,30.30,North,349,0.0,0.0,97,0.00,,BKN055,0.00,VWS V14.00,2013-10-14 10:40:00,
2013-10-14 06:50:00,43.8,43.3,30.30,North,349,0.0,0.0,98,0.00,,BKN055,0.00,VWS V14.00,2013-10-14 10:50:00,
2013-10-14 07:00:00,43.7,42.9,30.30,North,349,0.0,2.0,97,0.00,,BKN055,0.00,VWS V14.00,2013-10-14 11:00:00,
2013-10-14 07:10:00,43.4,42.9,30.29,North,349,2.0,3.0,98,0.00,,BKN055,0.00,VWS V14.00,2013-10-14 11:10:00,
2013-10-14 07:20:00,43.1,42.3,30.29,North,349,2.0,2.0,97,0.00,,BKN055,0.00,VWS V14.00,2013-10-14 11:20:00,
2013-10-14 07:30:00,42.9,42.4,30.29,North,349,0.0,3.0,98,0.00,,BKN055,0.00,VWS V14.00,2013-10-14 11:30:00,
2013-10-14 07:40:00,43.0,42.5,30.30,North,349,0.0,0.0,98,0.00,,BKN055,0.00,VWS V14.00,2013-10-14 11:40:00,
2013-10-14 07:50:00,42.8,42.3,30.29,North,350,0.0,3.0,98,0.00,,BKN055,0.00,VWS V14.00,2013-10-14 11:50:00,
2013-10-14 08:00:00,42.9,42.4,30.30,North,355,1.0,3.0,98,0.00,,BKN055,0.00,VWS V14.00,2013-10-14 12:00:00,
2013-10-14 08:10:00,43.3,42.8,30.30,North,355,0.0,3.0,98,0.00,,BKN055,0.00,VWS V14.00,2013-10-14 12:10:00,
2013-10-14 08:20:00,43.6,43.1,30.30,North,360,0.0,4.0,98,0.00,,BKN055,0.00,VWS V14.00,2013-10-14 12:20:00,
2013-10-14 08:30:00,44.1,43.6,30.30,North,360,0.0,4.0,98,0.00,,BKN055,0.00,VWS V14.00,2013-10-14 12:30:00,
2013-10-14 08:40:00,44.5,44.2,30.30,North,5,0.0,3.0,99,0.00,,BKN055,0.00,VWS V14.00,2013-10-14 12:40:00,
2013-10-14 08:50:00,45.1,44.8,30.30,North,355,3.0,4.0,99,0.00,,BKN055,0.00,VWS V14.00,2013-10-14 12:50:00,
2013-10-14 09:00:00,45.9,45.6,30.30,NNW,343,2.0,4.0,99,0.00,,BKN055,0.00,VWS V14.00,2013-10-14 13:00:00,
2013-10-14 09:10:00,47.0,46.7,30.31,NNW,344,2.0,4.0,99,0.00,,BKN055,0.00,VWS V14.00,2013-10-14 13:10:00,
2013-10-14 09:20:00,48.3,47.8,30.31,NNW,346,0.0,5.0,98,0.00,,BKN055,0.00,VWS V14.00,2013-10-14 13:20:00,
2013-10-14 09:30:00,44.1,43.6,30.30,North,360,0.0,4.0,98,0.00,,BKN055,0.00,VWS V14.00,2013-10-14 13:30:00,
2013-10-14 09:36:00,49.7,48.6,30.31,NW,325,2.0,5.0,96,0.00,,BKN055,0.00,VWS V14.00,2013-10-14 13:36:00,
2013-10-14 09:40:00,44.5,44.2,30.30,North,5,0.0,3.0,99,0.00,,BKN055,0.00,VWS V14.00,2013-10-14 13:40:00,
2013-10-14 09:41:00,51.2,49.2,30.31,NNE,17,0.0,5.0,93,0.00,,BKN055,0.00,VWS V14.00,2013-10-14 13:41:00,
2013-10-14 09:50:00,52.3,49.8,30.30,NNW,338,2.0,5.0,91,0.00,,BKN055,0.00,VWS V14.00,2013-10-14 13:50:00,
2013-10-14 10:00:00,53.6,50.4,30.30,NNW,338,0.0,4.0,89,0.00,,BKN055,0.00,VWS V14.00,2013-10-14 14:00:00,
2013-10-14 10:10:00,47.0,46.7,30.31,NNW,344,2.0,4.0,99,0.00,,BKN055,0.00,VWS V14.00,2013-10-14 14:10:00,
2013-10-14 10:20:00,48.3,47.8,30.31,NNW,346,0.0,5.0,98,0.00,,BKN055,0.00,VWS V14.00,2013-10-14 14:20:00,
2013-10-14 10:21:00,56.5,51.7,30.30,North,360,0.0,0.0,84,0.00,,BKN055,0.00,VWS V14.00,2013-10-14 14:21:00,
2013-10-14 10:30:00,49.7,48.6,30.31,NW,325,2.0,5.0,96,0.00,,BKN055,0.00,VWS V14.00,2013-10-14 14:30:00,
2013-10-14 10:31:00,57.6,51.5,30.29,East,99,0.0,4.0,80,0.00,,BKN055,0.00,VWS V14.00,2013-10-14 14:31:00,
2013-10-14 10:40:00,51.2,49.2,30.31,NNE,17,0.0,5.0,93,0.00,,BKN055,0.00,VWS V14.00,2013-10-14 14:40:00,
2013-10-14 10:41:00,58.5,52.4,30.29,East,88,0.0,3.0,80,0.00,,BKN055,0.00,VWS V14.00,2013-10-14 14:41:00,
2013-10-14 10:50:00,52.3,49.8,30.30,NNW,338,2.0,5.0,91,0.00,,BKN055,0.00,VWS V14.00,2013-10-14 14:50:00,
2013-10-14 10:51:00,59.0,52.5,30.29,ENE,68,0.0,3.0,79,0.00,,BKN055,0.00,VWS V14.00,2013-10-14 14:51:00,
2013-10-14 11:00:00,53.6,50.4,30.30,NNW,338,0.0,4.0,89,0.00,,BKN055,0.00,VWS V14.00,2013-10-14 15:00:00,
2013-10-14 11:01:00,60.0,53.1,30.28,ENE,63,0.0,5.0,78,0.00,,BKN055,0.00,VWS V14.00,2013-10-14 15:01:00,
2013-10-14 11:11:00,60.7,53.1,30.28,ESE,110,0.0,5.0,76,0.00,,BKN055,0.00,VWS V14.00,2013-10-14 15:11:00,
2013-10-14 11:20:00,56.5,51.7,30.30,North,360,0.0,0.0,84,0.00,,BKN055,0.00,VWS V14.00,2013-10-14 15:20:00,
2013-10-14 11:21:00,61.6,53.6,30.29,NNE,19,0.0,6.0,75,0.00,,BKN055,0.00,VWS V14.00,2013-10-14 15:21:00,
2013-10-14 11:30:00,57.6,51.5,30.29,East,99,0.0,4.0,80,0.00,,BKN055,0.00,VWS V14.00,2013-10-14 15:30:00,
2013-10-14 11:40:00,58.5,52.4,30.29,East,88,0.0,3.0,80,0.00,,BKN055,0.00,VWS V14.00,2013-10-14 15:40:00,
2013-10-14 11:41:00,62.9,53.4,30.28,East,86,0.0,7.0,71,0.00,,BKN055,0.00,VWS V14.00,2013-10-14 15:41:00,
2013-10-14 11:50:00,59.0,52.5,30.29,ENE,68,0.0,3.0,79,0.00,,BKN055,0.00,VWS V14.00,2013-10-14 15:50:00,
2013-10-14 11:51:00,63.5,54.3,30.28,NE,44,0.0,5.0,72,0.00,,BKN055,0.00,VWS V14.00,2013-10-14 15:51:00,
2013-10-14 12:00:00,60.0,53.1,30.28,ENE,63,0.0,5.0,78,0.00,,BKN055,0.00,VWS V14.00,2013-10-14 16:00:00,
2013-10-14 12:01:00,64.0,54.0,30.27,ENE,74,0.0,6.0,70,0.00,,BKN055,0.00,VWS V14.00,2013-10-14 16:01:00,
2013-10-14 12:10:00,60.7,53.1,30.28,ESE,110,0.0,5.0,76,0.00,,BKN055,0.00,VWS V14.00,2013-10-14 16:10:00,
2013-10-14 12:11:00,64.3,54.3,30.27,NNE,17,0.0,7.0,70,0.00,,BKN055,0.00,VWS V14.00,2013-10-14 16:11:00,
2013-10-14 12:20:00,61.6,53.6,30.29,NNE,19,0.0,6.0,75,0.00,,BKN055,0.00,VWS V14.00,2013-10-14 16:20:00,
2013-10-14 12:21:00,64.9,54.9,30.26,East,82,0.0,9.0,70,0.00,,BKN055,0.00,VWS V14.00,2013-10-14 16:21:00,
2013-10-14 12:30:00,62.4,54.0,30.28,NE,56,3.0,6.0,74,0.00,,BKN055,0.00,VWS V14.00,2013-10-14 16:30:00,
2013-10-14 12:31:00,65.5,54.7,30.25,East,81,2.0,6.0,68,0.00,,BKN055,0.00,VWS V14.00,2013-10-14 16:31:00,
2013-10-14 12:40:00,62.9,53.4,30.28,East,86,0.0,7.0,71,0.00,,BKN055,0.00,VWS V14.00,2013-10-14 16:40:00,
2013-10-14 12:41:00,66.2,55.7,30.25,NE,54,0.0,6.0,69,0.00,,BKN055,0.00,VWS V14.00,2013-10-14 16:41:00,
2013-10-14 12:50:00,63.5,54.3,30.28,NE,44,0.0,5.0,72,0.00,,BKN055,0.00,VWS V14.00,2013-10-14 16:50:00,
2013-10-14 12:51:00,66.8,55.9,30.25,NE,51,1.0,7.0,68,0.00,,BKN055,0.00,VWS V14.00,2013-10-14 16:51:00,
2013-10-14 13:00:00,64.0,54.0,30.27,ENE,74,0.0,6.0,70,0.00,,BKN055,0.00,VWS V14.00,2013-10-14 17:00:00,
2013-10-14 13:01:00,67.8,55.6,30.25,East,88,0.0,5.0,65,0.00,,BKN055,0.00,VWS V14.00,2013-10-14 17:01:00,
2013-10-14 13:10:00,64.3,54.3,30.27,NNE,17,0.0,7.0,70,0.00,,BKN055,0.00,VWS V14.00,2013-10-14 17:10:00,
2013-10-14 13:11:00,67.9,55.7,30.24,ENE,69,0.0,5.0,65,0.00,,BKN055,0.00,VWS V14.00,2013-10-14 17:11:00,
2013-10-14 13:20:00,64.9,54.9,30.26,East,82,0.0,9.0,70,0.00,,BKN055,0.00,VWS V14.00,2013-10-14 17:20:00,
2013-10-14 13:21:00,68.5,56.7,30.24,East,90,0.0,5.0,66,0.00,,BKN055,0.00,VWS V14.00,2013-10-14 17:21:00,
2013-10-14 13:30:00,65.5,54.7,30.25,East,81,2.0,6.0,68,0.00,,BKN055,0.00,VWS V14.00,2013-10-14 17:30:00,
2013-10-14 13:31:00,68.6,56.4,30.23,NE,53,3.0,6.0,65,0.00,,BKN055,0.00,VWS V14.00,2013-10-14 17:31:00,
2013-10-14 13:40:00,66.2,55.7,30.25,NE,54,0.0,6.0,69,0.00,,BKN055,0.00,VWS V14.00,2013-10-14 17:40:00,
2013-10-14 13:41:00,68.7,55.6,30.23,SE,142,0.0,5.0,63,0.00,,BKN055,0.00,VWS V14.00,2013-10-14 17:41:00,
2013-10-14 13:50:00,66.8,55.9,30.25,NE,51,1.0,7.0,68,0.00,,BKN055,0.00,VWS V14.00,2013-10-14 17:50:00,
2013-10-14 13:51:00,69.1,56.0,30.23,NE,46,0.0,7.0,63,0.00,,BKN055,0.00,VWS V14.00,2013-10-14 17:51:00,
2013-10-14 14:00:00,67.8,55.6,30.25,East,88,0.0,5.0,65,0.00,,BKN055,0.00,VWS V14.00,2013-10-14 18:00:00,
2013-10-14 14:01:00,69.5,55.9,30.22,ENE,61,3.0,6.0,62,0.00,,BKN055,0.00,VWS V14.00,2013-10-14 18:01:00,
2013-10-14 14:10:00,67.9,55.7,30.24,ENE,69,0.0,5.0,65,0.00,,BKN055,0.00,VWS V14.00,2013-10-14 18:10:00,
2013-10-14 14:11:00,69.8,56.2,30.22,NNE,22,3.0,8.0,62,0.00,,BKN055,0.00,VWS V14.00,2013-10-14 18:11:00,
2013-10-14 14:20:00,68.5,56.7,30.24,East,90,0.0,5.0,66,0.00,,BKN055,0.00,VWS V14.00,2013-10-14 18:20:00,
2013-10-14 14:21:00,70.3,55.8,30.21,ENE,67,0.0,4.0,60,0.00,,BKN055,0.00,VWS V14.00,2013-10-14 18:21:00,
2013-10-14 14:30:00,68.6,56.4,30.23,NE,53,3.0,6.0,65,0.00,,BKN055,0.00,VWS V14.00,2013-10-14 18:30:00,
2013-10-14 14:31:00,70.4,55.9,30.20,NE,55,2.0,5.0,60,0.00,,BKN055,0.00,VWS V14.00,2013-10-14 18:31:00,
2013-10-14 14:40:00,68.7,55.6,30.23,SE,142,0.0,5.0,63,0.00,,BKN055,0.00,VWS V14.00,2013-10-14 18:40:00,
2013-10-14 14:41:00,70.7,55.2,30.20,North,355,0.0,5.0,58,0.00,,BKN055,0.00,VWS V14.00,2013-10-14 18:41:00,
2013-10-14 14:50:00,69.1,56.0,30.23,NE,46,0.0,7.0,63,0.00,,BKN055,0.00,VWS V14.00,2013-10-14 18:50:00,
2013-10-14 14:51:00,71.1,55.6,30.19,East,86,1.0,4.0,58,0.00,,BKN055,0.00,VWS V14.00,2013-10-14 18:51:00,
2013-10-14 15:00:00,69.5,55.9,30.22,ENE,61,3.0,6.0,62,0.00,,BKN055,0.00,VWS V14.00,2013-10-14 19:00:00,
2013-10-14 15:01:00,71.3,55.3,30.19,East,101,0.0,4.0,57,0.00,,BKN055,0.00,VWS V14.00,2013-10-14 19:01:00,
2013-10-14 15:10:00,69.8,56.2,30.22,NNE,22,3.0,8.0,62,0.00,,BKN055,0.00,VWS V14.00,2013-10-14 19:10:00,
2013-10-14 15:11:00,71.4,55.9,30.18,SSE,155,0.0,5.0,58,0.00,,BKN055,0.00,VWS V14.00,2013-10-14 19:11:00,
2013-10-14 15:20:00,70.3,55.8,30.21,ENE,67,0.0,4.0,60,0.00,,BKN055,0.00,VWS V14.00,2013-10-14 19:20:00,
2013-10-14 15:21:00,72.0,55.0,30.18,ENE,59,0.0,6.0,55,0.00,,BKN055,0.00,VWS V14.00,2013-10-14 19:21:00,
2013-10-14 15:30:00,70.4,55.9,30.20,NE,55,2.0,5.0,60,0.00,,BKN055,0.00,VWS V14.00,2013-10-14 19:30:00,
2013-10-14 15:31:00,72.5,56.4,30.17,NE,45,0.0,5.0,57,0.00,,BKN055,0.00,VWS V14.00,2013-10-14 19:31:00,
2013-10-14 15:40:00,70.7,55.2,30.20,North,355,0.0,5.0,58,0.00,,BKN055,0.00,VWS V14.00,2013-10-14 19:40:00,
2013-10-14 15:41:00,72.8,55.7,30.17,North,11,0.0,5.0,55,0.00,,BKN055,0.00,VWS V14.00,2013-10-14 19:41:00,
2013-10-14 15:50:00,71.1,55.6,30.19,East,86,1.0,4.0,58,0.00,,BKN055,0.00,VWS V14.00,2013-10-14 19:50:00,
2013-10-14 15:51:00,73.1,55.0,30.18,NE,36,0.0,3.0,53,0.00,,BKN055,0.00,VWS V14.00,2013-10-14 19:51:00,
2013-10-14 16:00:00,71.3,55.3,30.19,East,101,0.0,4.0,57,0.00,,BKN055,0.00,VWS V14.00,2013-10-14 20:00:00,
2013-10-14 16:01:00,73.0,54.9,30.17,ENE,65,0.0,3.0,53,0.00,,BKN055,0.00,VWS V14.00,2013-10-14 20:01:00,
2013-10-14 16:10:00,71.4,55.9,30.18,SSE,155,0.0,5.0,58,0.00,,BKN055,0.00,VWS V14.00,2013-10-14 20:10:00,
2013-10-14 16:11:00,72.9,56.3,30.17,NE,48,3.0,4.0,56,0.00,,BKN055,0.00,VWS V14.00,2013-10-14 20:11:00,
2013-10-14 16:20:00,72.0,55.0,30.18,ENE,59,0.0,6.0,55,0.00,,BKN055,0.00,VWS V14.00,2013-10-14 20:20:00,
2013-10-14 16:21:00,72.5,54.9,30.16,ENE,65,0.0,5.0,54,0.00,,BKN055,0.00,VWS V14.00,2013-10-14 20:21:00,
2013-10-14 16:30:00,72.5,56.4,30.17,NE,45,0.0,5.0,57,0.00,,BKN055,0.00,VWS V14.00,2013-10-14 20:30:00,
2013-10-14 16:31:00,71.9,56.8,30.15,East,87,0.0,5.0,59,0.00,,BKN055,0.00,VWS V14.00,2013-10-14 20:31:00,
2013-10-14 16:40:00,72.8,55.7,30.17,North,11,0.0,5.0,55,0.00,,BKN055,0.00,VWS V14.00,2013-10-14 20:40:00,
2013-10-14 16:41:00,71.9,54.9,30.15,ENE,58,5.0,5.0,55,0.00,,BKN055,0.00,VWS V14.00,2013-10-14 20:41:00,
2013-10-14 16:50:00,73.1,55.0,30.18,NE,36,0.0,3.0,53,0.00,,BKN055,0.00,VWS V14.00,2013-10-14 20:50:00,
2013-10-14 16:51:00,71.9,53.9,30.15,ENE,67,0.0,5.0,53,0.00,,BKN055,0.00,VWS V14.00,2013-10-14 20:51:00,
2013-10-14 17:00:00,73.0,54.9,30.17,ENE,65,0.0,3.0,53,0.00,,BKN055,0.00,VWS V14.00,2013-10-14 21:00:00,
2013-10-14 17:01:00,71.4,55.4,30.15,NE,48,2.0,4.0,57,0.00,,BKN055,0.00,VWS V14.00,2013-10-14 21:01:00,
2013-10-14 17:10:00,72.9,56.3,30.17,NE,48,3.0,4.0,56,0.00,,BKN055,0.00,VWS V14.00,2013-10-14 21:10:00,
2013-10-14 17:11:00,71.3,54.8,30.15,ENE,70,1.0,4.0,56,0.00,,BKN055,0.00,VWS V14.00,2013-10-14 21:11:00,
2013-10-14 17:20:00,72.5,54.9,30.16,ENE,65,0.0,5.0,54,0.00,,BKN055,0.00,VWS V14.00,2013-10-14 21:20:00,
2013-10-14 17:21:00,71.6,54.6,30.15,NE,53,0.0,3.0,55,0.00,,BKN055,0.00,VWS V14.00,2013-10-14 21:21:00,
2013-10-14 17:30:00,71.9,56.8,30.15,East,87,0.0,5.0,59,0.00,,BKN055,0.00,VWS V14.00,2013-10-14 21:30:00,
2013-10-14 17:31:00,71.4,56.3,30.15,ENE,71,0.0,1.0,59,0.00,,BKN055,0.00,VWS V14.00,2013-10-14 21:31:00,
2013-10-14 17:40:00,71.9,54.9,30.15,ENE,58,5.0,5.0,55,0.00,,BKN055,0.00,VWS V14.00,2013-10-14 21:40:00,
2013-10-14 17:41:00,71.3,57.6,30.16,East,82,0.0,0.0,62,0.00,,BKN055,0.00,VWS V14.00,2013-10-14 21:41:00,
2013-10-14 17:50:00,71.9,53.9,30.15,ENE,67,0.0,5.0,53,0.00,,BKN055,0.00,VWS V14.00,2013-10-14 21:50:00,
2013-10-14 17:51:00,70.8,56.2,30.16,East,82,0.0,0.0,60,0.00,,BKN055,0.00,VWS V14.00,2013-10-14 21:51:00,
2013-10-14 18:00:00,71.4,55.4,30.15,NE,48,2.0,4.0,57,0.00,,BKN055,0.00,VWS V14.00,2013-10-14 22:00:00,
2013-10-14 18:01:00,69.0,57.6,30.16,East,82,0.0,0.0,67,0.00,,BKN055,0.00,VWS V14.00,2013-10-14 22:01:00,
2013-10-14 18:10:00,71.3,54.8,30.15,ENE,70,1.0,4.0,56,0.00,,BKN055,0.00,VWS V14.00,2013-10-14 22:10:00,
2013-10-14 18:11:00,66.9,57.2,30.16,WNW,292,0.0,0.0,71,0.00,,BKN055,0.00,VWS V14.00,2013-10-14 22:11:00,
2013-10-14 18:20:00,71.6,54.6,30.15,NE,53,0.0,3.0,55,0.00,,BKN055,0.00,VWS V14.00,2013-10-14 22:20:00,
2013-10-14 18:21:00,65.7,57.6,30.16,WSW,256,0.0,0.0,75,0.00,,BKN055,0.00,VWS V14.00,2013-10-14 22:21:00,
2013-10-14 18:30:00,71.4,56.3,30.15,ENE,71,0.0,1.0,59,0.00,,BKN055,0.00,VWS V14.00,2013-10-14 22:30:00,
2013-10-14 18:31:00,64.4,56.7,30.17,WSW,256,0.0,0.0,76,0.00,,BKN055,0.00,VWS V14.00,2013-10-14 22:31:00,
2013-10-14 18:40:00,71.3,57.6,30.16,East,82,0.0,0.0,62,0.00,,BKN055,0.00,VWS V14.00,2013-10-14 22:40:00,
2013-10-14 18:41:00,63.1,55.8,30.16,West,276,0.0,3.0,77,0.00,,BKN055,0.00,VWS V14.00,2013-10-14 22:41:00,
2013-10-14 18:50:00,70.8,56.2,30.16,East,82,0.0,0.0,60,0.00,,BKN055,0.00,VWS V14.00,2013-10-14 22:50:00,
2013-10-14 18:51:00,62.3,56.1,30.16,North,10,0.0,0.0,80,0.00,,BKN055,0.00,VWS V14.00,2013-10-14 22:51:00,
2013-10-14 19:00:00,69.0,57.6,30.16,East,82,0.0,0.0,67,0.00,,BKN055,0.00,VWS V14.00,2013-10-14 23:00:00,
2013-10-14 19:01:00,61.4,55.5,30.16,North,10,0.0,0.0,81,0.00,,BKN055,0.00,VWS V14.00,2013-10-14 23:01:00,
2013-10-14 19:10:00,66.9,57.2,30.16,WNW,292,0.0,0.0,71,0.00,,BKN055,0.00,VWS V14.00,2013-10-14 23:10:00,
2013-10-14 19:11:00,60.7,55.5,30.15,North,10,0.0,0.0,83,0.00,,BKN055,0.00,VWS V14.00,2013-10-14 23:11:00,
2013-10-14 19:20:00,65.7,57.6,30.16,WSW,256,0.0,0.0,75,0.00,,BKN055,0.00,VWS V14.00,2013-10-14 23:20:00,
2013-10-14 19:21:00,59.9,55.4,30.15,North,10,0.0,0.0,85,0.00,,BKN055,0.00,VWS V14.00,2013-10-14 23:21:00,
2013-10-14 19:30:00,64.4,56.7,30.17,WSW,256,0.0,0.0,76,0.00,,BKN055,0.00,VWS V14.00,2013-10-14 23:30:00,
2013-10-14 19:31:00,59.0,54.8,30.15,North,10,0.0,1.0,86,0.00,,BKN055,0.00,VWS V14.00,2013-10-14 23:31:00,
2013-10-14 19:40:00,63.1,55.8,30.16,West,276,0.0,3.0,77,0.00,,BKN055,0.00,VWS V14.00,2013-10-14 23:40:00,
2013-10-14 19:41:00,59.0,55.1,30.15,North,9,0.0,2.0,87,0.00,,BKN055,0.00,VWS V14.00,2013-10-14 23:41:00,
2013-10-14 19:50:00,62.3,56.1,30.16,North,10,0.0,0.0,80,0.00,,BKN055,0.00,VWS V14.00,2013-10-14 23:50:00,
2013-10-14 19:51:00,58.9,55.0,30.16,North,5,0.0,2.0,87,0.00,,BKN055,0.00,VWS V14.00,2013-10-14 23:51:00,
2013-10-14 20:00:00,61.4,55.5,30.16,North,10,0.0,0.0,81,0.00,,BKN055,0.00,VWS V14.00,2013-10-15 00:00:00,
2013-10-14 20:01:00,58.2,54.4,30.15,North,355,0.0,2.0,87,0.00,,BKN055,0.00,VWS V14.00,2013-10-15 00:01:00,
2013-10-14 20:10:00,60.7,55.5,30.15,North,10,0.0,0.0,83,0.00,,BKN055,0.00,VWS V14.00,2013-10-15 00:10:00,
2013-10-14 20:11:00,57.9,54.4,30.15,NNW,330,0.0,3.0,88,0.00,,BKN055,0.00,VWS V14.00,2013-10-15 00:11:00,
2013-10-14 20:20:00,59.9,55.4,30.15,North,10,0.0,0.0,85,0.00,,BKN055,0.00,VWS V14.00,2013-10-15 00:20:00,
2013-10-14 20:30:00,59.0,54.8,30.15,North,10,0.0,1.0,86,0.00,,BKN055,0.00,VWS V14.00,2013-10-15 00:30:00,
2013-10-14 20:31:00,56.6,53.7,30.15,NNW,338,0.0,4.0,90,0.00,,BKN055,0.00,VWS V14.00,2013-10-15 00:31:00,
2013-10-14 20:40:00,59.0,55.1,30.15,North,9,0.0,2.0,87,0.00,,BKN055,0.00,VWS V14.00,2013-10-15 00:40:00,
2013-10-14 20:41:00,56.0,53.4,30.15,NNW,341,0.0,0.0,91,0.00,,BKN055,0.00,VWS V14.00,2013-10-15 00:41:00,
2013-10-14 20:50:00,58.9,55.0,30.16,North,5,0.0,2.0,87,0.00,,BKN055,0.00,VWS V14.00,2013-10-15 00:50:00,
2013-10-14 20:51:00,55.4,53.1,30.15,NNW,344,0.0,1.0,92,0.00,,BKN055,0.00,VWS V14.00,2013-10-15 00:51:00,
2013-10-14 21:00:00,58.2,54.3,30.15,North,355,0.0,2.0,87,0.00,,BKN055,0.00,VWS V14.00,2013-10-15 01:00:00,
2013-10-14 21:01:00,54.9,52.6,30.15,North,350,0.0,3.0,92,0.00,,BKN055,0.00,VWS V14.00,2013-10-15 01:01:00,
2013-10-14 21:10:00,57.9,54.4,30.15,NNW,330,0.0,3.0,88,0.00,,BKN055,0.00,VWS V14.00,2013-10-15 01:10:00,
2013-10-14 21:11:00,54.7,52.7,30.14,North,360,0.0,0.0,93,0.00,,BKN055,0.00,VWS V14.00,2013-10-15 01:11:00,
2013-10-14 21:20:00,57.3,54.1,30.15,NNW,333,0.0,0.0,89,0.00,,BKN055,0.00,VWS V14.00,2013-10-15 01:20:00,
2013-10-14 21:21:00,54.5,52.5,30.14,North,360,0.0,0.0,93,0.00,,BKN055,0.00,VWS V14.00,2013-10-15 01:21:00,
2013-10-14 21:30:00,56.6,53.7,30.15,NNW,338,0.0,4.0,90,0.00,,BKN055,0.00,VWS V14.00,2013-10-15 01:30:00,
2013-10-14 21:31:00,54.1,52.1,30.15,North,9,0.0,3.0,93,0.00,,BKN055,0.00,VWS V14.00,2013-10-15 01:31:00,
2013-10-14 21:40:00,56.0,53.4,30.15,NNW,341,0.0,0.0,91,0.00,,BKN055,0.00,VWS V14.00,2013-10-15 01:40:00,
2013-10-14 21:41:00,53.9,52.2,30.15,North,355,1.0,3.0,94,0.00,,BKN055,0.00,VWS V14.00,2013-10-15 01:41:00,
2013-10-14 21:50:00,55.4,53.1,30.15,NNW,344,0.0,1.0,92,0.00,,BKN055,0.00,VWS V14.00,2013-10-15 01:50:00,
2013-10-14 21:51:00,53.7,52.0,30.15,North,360,0.0,2.0,94,0.00,,BKN055,0.00,VWS V14.00,2013-10-15 01:51:00,
2013-10-14 22:00:00,54.9,52.6,30.15,North,350,0.0,3.0,92,0.00,,BKN055,0.00,VWS V14.00,2013-10-15 02:00:00,
2013-10-14 22:01:00,53.5,51.8,30.15,North,350,0.0,2.0,94,0.00,,BKN055,0.00,VWS V14.00,2013-10-15 02:01:00,
2013-10-14 22:10:00,54.7,52.7,30.14,North,360,0.0,0.0,93,0.00,,BKN055,0.00,VWS V14.00,2013-10-15 02:10:00,
2013-10-14 22:11:00,53.3,51.6,30.16,North,350,0.0,2.0,94,0.00,,BKN055,0.00,VWS V14.00,2013-10-15 02:11:00,
2013-10-14 22:20:00,54.5,52.5,30.14,North,360,0.0,0.0,93,0.00,,BKN055,0.00,VWS V14.00,2013-10-15 02:20:00,
2013-10-14 22:21:00,53.1,51.4,30.16,NNW,346,0.0,3.0,94,0.00,,BKN055,0.00,VWS V14.00,2013-10-15 02:21:00,
2013-10-14 22:30:00,54.1,52.1,30.15,North,9,0.0,3.0,93,0.00,,BKN055,0.00,VWS V14.00,2013-10-15 02:30:00,
2013-10-14 22:31:00,52.9,51.2,30.16,North,349,0.0,0.0,94,0.00,,BKN055,0.00,VWS V14.00,2013-10-15 02:31:00,
2013-10-14 22:40:00,53.9,52.2,30.15,North,355,1.0,3.0,94,0.00,,BKN055,0.00,VWS V14.00,2013-10-15 02:40:00,
2013-10-14 22:41:00,52.7,51.3,30.16,North,350,0.0,1.0,95,0.00,,BKN055,0.00,VWS V14.00,2013-10-15 02:41:00,
2013-10-14 22:50:00,53.7,52.0,30.15,North,360,0.0,2.0,94,0.00,,BKN055,0.00,VWS V14.00,2013-10-15 02:50:00,
2013-10-14 22:51:00,52.6,51.2,30.16,North,355,0.0,4.0,95,0.00,,BKN055,0.00,VWS V14.00,2013-10-15 02:51:00,
2013-10-14 23:00:00,53.5,51.8,30.15,North,350,0.0,2.0,94,0.00,,BKN055,0.00,VWS V14.00,2013-10-15 03:00:00,
2013-10-14 23:01:00,52.4,51.0,30.16,North,355,0.0,0.0,95,0.00,,BKN055,0.00,VWS V14.00,2013-10-15 03:01:00,
2013-10-14 23:10:00,53.3,51.6,30.16,North,350,0.0,2.0,94,0.00,,BKN055,0.00,VWS V14.00,2013-10-15 03:10:00,
2013-10-14 23:11:00,52.3,51.2,30.16,North,349,0.0,2.0,96,0.00,,BKN055,0.00,VWS V14.00,2013-10-15 03:11:00,
2013-10-14 23:20:00,53.1,51.4,30.16,NNW,346,0.0,3.0,94,0.00,,BKN055,0.00,VWS V14.00,2013-10-15 03:20:00,
2013-10-14 23:21:00,52.1,51.0,30.15,North,349,0.0,0.0,96,0.00,,BKN055,0.00,VWS V14.00,2013-10-15 03:21:00,
2013-10-14 23:30:00,52.9,51.2,30.16,North,349,0.0,0.0,94,0.00,,BKN055,0.00,VWS V14.00,2013-10-15 03:30:00,
2013-10-14 23:31:00,52.1,51.0,30.16,North,349,0.0,3.0,96,0.00,,BKN055,0.00,VWS V14.00,2013-10-15 03:31:00,
2013-10-14 23:40:00,52.7,51.3,30.16,North,350,0.0,1.0,95,0.00,,BKN055,0.00,VWS V14.00,2013-10-15 03:40:00,
2013-10-14 23:41:00,51.8,50.7,30.16,NNW,348,0.0,2.0,96,0.00,,BKN055,0.00,VWS V14.00,2013-10-15 03:41:00,
2013-10-14 23:50:00,52.6,51.2,30.16,North,355,0.0,4.0,95,0.00,,BKN055,0.00,VWS V14.00,2013-10-15 03:50:00,
2013-10-14 23:51:00,51.7,50.6,30.16,NNW,340,3.0,4.0,96,0.00,,BKN055,0.00,VWS V14.00,2013-10-15 03:51:00,